Year,Month,Day,Hour,Minute,Value (Times are PST for windgust in km/hr)
2010,11,17,00,01,3.20
2010,11,17,00,02,3.20
2010,11,17,00,03,1.60
2010,11,17,00,04,6.40
2010,11,17,00,05,6.40
2010,11,17,00,06,4.80
2010,11,17,00,07,4.80
2010,11,17,00,08,3.20
2010,11,17,00,09,4.80
2010,11,17,00,10,3.20
2010,11,17,00,11,4.80
2010,11,17,00,12,4.80
2010,11,17,00,13,4.80
2010,11,17,00,14,4.80
2010,11,17,00,15,3.20
2010,11,17,00,16,3.20
2010,11,17,00,17,3.20
2010,11,17,00,18,1.60
2010,11,17,00,20,1.60
2010,11,17,00,26,1.60
2010,11,17,00,28,1.60
2010,11,17,00,30,1.60
2010,11,17,00,42,1.60
2010,11,17,00,43,1.60
2010,11,17,00,44,3.20
2010,11,17,00,46,3.20
2010,11,17,00,47,1.60
2010,11,17,00,52,1.60
2010,11,17,01,06,1.60
2010,11,17,01,24,1.60
2010,11,17,01,25,1.60
2010,11,17,01,37,1.60
2010,11,17,01,43,1.60
2010,11,17,01,46,1.60
2010,11,17,01,48,1.60
2010,11,17,01,52,1.60
2010,11,17,01,53,3.20
2010,11,17,01,54,3.20
2010,11,17,01,55,4.80
2010,11,17,01,56,4.80
2010,11,17,01,57,4.80
2010,11,17,01,58,4.80
2010,11,17,01,59,4.80
2010,11,17,02,00,3.20
2010,11,17,02,01,4.80
2010,11,17,02,02,3.20
2010,11,17,02,03,3.20
2010,11,17,02,04,4.80
2010,11,17,02,05,4.80
2010,11,17,02,06,4.80
2010,11,17,02,07,4.80
2010,11,17,02,08,4.80
2010,11,17,02,09,4.80
2010,11,17,02,10,4.80
2010,11,17,02,11,6.40
2010,11,17,02,12,6.40
2010,11,17,02,13,3.20
2010,11,17,02,14,9.60
2010,11,17,02,15,8.10
2010,11,17,02,16,6.40
2010,11,17,02,17,8.10
2010,11,17,02,18,6.40
2010,11,17,02,19,6.40
2010,11,17,02,20,6.40
2010,11,17,02,21,6.40
2010,11,17,02,22,6.40
2010,11,17,02,23,6.40
2010,11,17,02,24,6.40
2010,11,17,02,25,8.10
2010,11,17,02,26,6.40
2010,11,17,02,27,4.80
2010,11,17,02,28,6.40
2010,11,17,02,29,6.40
2010,11,17,02,30,4.80
2010,11,17,02,31,6.40
2010,11,17,02,32,6.40
2010,11,17,02,33,8.10
2010,11,17,02,34,6.40
2010,11,17,02,35,6.40
2010,11,17,02,36,6.40
2010,11,17,02,37,4.80
2010,11,17,02,38,4.80
2010,11,17,02,39,3.20
2010,11,17,02,40,1.60
2010,11,17,02,41,1.60
2010,11,17,02,42,4.80
2010,11,17,02,43,3.20
2010,11,17,02,44,6.40
2010,11,17,02,45,6.40
2010,11,17,02,46,4.80
2010,11,17,02,47,6.40
2010,11,17,02,48,4.80
2010,11,17,02,49,6.40
2010,11,17,02,50,4.80
2010,11,17,02,51,4.80
2010,11,17,02,52,4.80
2010,11,17,02,53,3.20
2010,11,17,02,54,3.20
2010,11,17,02,56,3.20
2010,11,17,02,57,3.20
2010,11,17,03,01,1.60
2010,11,17,03,02,3.20
2010,11,17,03,03,1.60
2010,11,17,03,04,1.60
2010,11,17,03,05,4.80
2010,11,17,03,06,4.80
2010,11,17,03,07,3.20
2010,11,17,03,08,6.40
2010,11,17,03,09,4.80
2010,11,17,03,10,4.80
2010,11,17,03,11,4.80
2010,11,17,03,12,4.80
2010,11,17,03,13,6.40
2010,11,17,03,14,4.80
2010,11,17,03,15,6.40
2010,11,17,03,16,6.40
2010,11,17,03,17,4.80
2010,11,17,03,18,6.40
2010,11,17,03,19,6.40
2010,11,17,03,20,9.60
2010,11,17,03,21,6.40
2010,11,17,03,22,9.60
2010,11,17,03,23,8.10
2010,11,17,03,24,9.60
2010,11,17,03,25,8.10
2010,11,17,03,26,12.90
2010,11,17,03,27,12.90
2010,11,17,03,28,9.60
2010,11,17,03,29,14.50
2010,11,17,03,30,9.60
2010,11,17,03,31,9.60
2010,11,17,03,32,6.40
2010,11,17,03,33,8.10
2010,11,17,03,34,8.10
2010,11,17,03,35,6.40
2010,11,17,03,36,9.60
2010,11,17,03,37,3.20
2010,11,17,03,38,9.60
2010,11,17,03,39,6.40
2010,11,17,03,40,6.40
2010,11,17,03,41,4.80
2010,11,17,03,42,4.80
2010,11,17,03,43,4.80
2010,11,17,03,44,9.60
2010,11,17,03,45,4.80
2010,11,17,03,46,8.10
2010,11,17,03,47,8.10
2010,11,17,03,48,4.80
2010,11,17,03,49,1.60
2010,11,17,03,50,3.20
2010,11,17,03,51,1.60
2010,11,17,03,53,4.80
2010,11,17,03,54,4.80
2010,11,17,04,01,1.60
2010,11,17,04,02,3.20
2010,11,17,04,03,4.80
2010,11,17,04,07,1.60
2010,11,17,04,09,1.60
2010,11,17,04,10,1.60
2010,11,17,04,11,1.60
2010,11,17,04,12,1.60
2010,11,17,04,13,1.60
2010,11,17,04,14,3.20
2010,11,17,04,15,3.20
2010,11,17,04,16,4.80
2010,11,17,04,17,3.20
2010,11,17,04,18,3.20
2010,11,17,04,19,3.20
2010,11,17,04,20,8.10
2010,11,17,04,21,3.20
2010,11,17,04,22,4.80
2010,11,17,04,23,6.40
2010,11,17,04,24,3.20
2010,11,17,04,25,1.60
2010,11,17,04,26,1.60
2010,11,17,04,27,6.40
2010,11,17,04,28,1.60
2010,11,17,04,29,3.20
2010,11,17,04,30,4.80
2010,11,17,04,31,3.20
2010,11,17,04,32,4.80
2010,11,17,04,33,6.40
2010,11,17,04,34,8.10
2010,11,17,04,35,6.40
2010,11,17,04,36,3.20
2010,11,17,04,37,6.40
2010,11,17,04,38,8.10
2010,11,17,04,39,6.40
2010,11,17,04,40,4.80
2010,11,17,04,41,3.20
2010,11,17,04,42,1.60
2010,11,17,04,43,1.60
2010,11,17,04,44,1.60
2010,11,17,04,45,1.60
2010,11,17,04,46,3.20
2010,11,17,04,47,1.60
2010,11,17,04,48,3.20
2010,11,17,04,49,3.20
2010,11,17,04,50,3.20
2010,11,17,04,51,1.60
2010,11,17,04,52,3.20
2010,11,17,04,53,3.20
2010,11,17,04,54,1.60
2010,11,17,04,55,4.80
2010,11,17,04,56,8.10
2010,11,17,04,57,6.40
2010,11,17,04,58,3.20
2010,11,17,04,59,3.20
2010,11,17,05,00,4.80
2010,11,17,05,01,3.20
2010,11,17,05,02,4.80
2010,11,17,05,03,6.40
2010,11,17,05,04,3.20
2010,11,17,05,05,1.60
2010,11,17,05,06,4.80
2010,11,17,05,07,4.80
2010,11,17,05,08,4.80
2010,11,17,05,09,3.20
2010,11,17,05,10,1.60
2010,11,17,05,11,3.20
2010,11,17,05,14,8.10
2010,11,17,05,15,1.60
2010,11,17,05,17,1.60
2010,11,17,05,18,3.20
2010,11,17,05,19,1.60
2010,11,17,05,20,3.20
2010,11,17,05,21,1.60
2010,11,17,05,22,1.60
2010,11,17,05,30,1.60
2010,11,17,05,38,1.60
2010,11,17,07,06,1.60
2010,11,17,07,11,1.60
2010,11,17,07,12,1.60
2010,11,17,07,13,3.20
2010,11,17,07,14,1.60
2010,11,17,07,15,1.60
2010,11,17,07,16,1.60
2010,11,17,07,17,1.60
2010,11,17,07,27,1.60
2010,11,17,07,28,1.60
2010,11,17,07,34,3.20
2010,11,17,07,35,1.60
2010,11,17,07,40,1.60
2010,11,17,07,41,1.60
2010,11,17,07,44,1.60
2010,11,17,07,45,4.80
2010,11,17,07,46,6.40
2010,11,17,07,47,6.40
2010,11,17,07,48,1.60
2010,11,17,07,49,1.60
2010,11,17,07,50,3.20
2010,11,17,07,51,4.80
2010,11,17,07,52,1.60
2010,11,17,07,53,1.60
2010,11,17,07,54,3.20
2010,11,17,07,55,3.20
2010,11,17,07,56,4.80
2010,11,17,07,57,3.20
2010,11,17,07,58,3.20
2010,11,17,07,59,3.20
2010,11,17,08,00,1.60
2010,11,17,08,01,4.80
2010,11,17,08,03,3.20
2010,11,17,08,04,4.80
2010,11,17,08,05,4.80
2010,11,17,08,06,4.80
2010,11,17,08,07,3.20
2010,11,17,08,08,4.80
2010,11,17,08,09,6.40
2010,11,17,08,10,6.40
2010,11,17,08,11,4.80
2010,11,17,08,13,3.20
2010,11,17,08,14,1.60
2010,11,17,08,15,3.20
2010,11,17,08,16,4.80
2010,11,17,08,17,3.20
2010,11,17,08,18,3.20
2010,11,17,08,19,4.80
2010,11,17,08,20,6.40
2010,11,17,08,21,4.80
2010,11,17,08,27,1.60
2010,11,17,08,28,6.40
2010,11,17,08,29,3.20
2010,11,17,08,30,11.30
2010,11,17,08,31,17.70
2010,11,17,08,32,27.40
2010,11,17,08,33,25.70
2010,11,17,08,34,22.50
2010,11,17,08,35,29.00
2010,11,17,08,36,30.60
2010,11,17,08,37,25.70
2010,11,17,08,38,30.60
2010,11,17,08,39,24.20
2010,11,17,08,40,29.00
2010,11,17,08,41,22.50
2010,11,17,08,42,22.50
2010,11,17,08,43,30.60
2010,11,17,08,44,17.70
2010,11,17,08,45,24.20
2010,11,17,08,46,25.70
2010,11,17,08,47,32.20
2010,11,17,08,48,19.30
2010,11,17,08,49,20.90
2010,11,17,08,50,24.20
2010,11,17,08,51,17.70
2010,11,17,08,52,22.50
2010,11,17,08,53,11.30
2010,11,17,08,54,20.90
2010,11,17,08,55,16.10
2010,11,17,08,56,27.40
2010,11,17,08,57,11.30
2010,11,17,08,58,12.90
2010,11,17,08,59,19.30
2010,11,17,09,00,11.30
2010,11,17,09,01,19.30
2010,11,17,09,02,9.60
2010,11,17,09,03,11.30
2010,11,17,09,04,9.60
2010,11,17,09,05,6.40
2010,11,17,09,06,6.40
2010,11,17,09,07,22.50
2010,11,17,09,08,8.10
2010,11,17,09,09,17.70
2010,11,17,09,10,8.10
2010,11,17,09,11,11.30
2010,11,17,09,12,8.10
2010,11,17,09,13,6.40
2010,11,17,09,14,17.70
2010,11,17,09,15,11.30
2010,11,17,09,16,12.90
2010,11,17,09,17,11.30
2010,11,17,09,18,8.10
2010,11,17,09,19,14.50
2010,11,17,09,20,9.60
2010,11,17,09,21,11.30
2010,11,17,09,22,9.60
2010,11,17,09,23,8.10
2010,11,17,09,24,6.40
2010,11,17,09,25,9.60
2010,11,17,09,26,8.10
2010,11,17,09,27,6.40
2010,11,17,09,28,8.10
2010,11,17,09,29,6.40
2010,11,17,09,30,6.40
2010,11,17,09,31,14.50
2010,11,17,09,32,8.10
2010,11,17,09,33,9.60
2010,11,17,09,34,4.80
2010,11,17,09,35,9.60
2010,11,17,09,36,11.30
2010,11,17,09,37,9.60
2010,11,17,09,38,4.80
2010,11,17,09,39,4.80
2010,11,17,09,40,3.20
2010,11,17,09,41,3.20
2010,11,17,09,42,3.20
2010,11,17,09,43,1.60
2010,11,17,09,44,1.60
2010,11,17,09,46,1.60
2010,11,17,09,54,1.60
2010,11,17,09,58,1.60
2010,11,17,10,00,1.60
2010,11,17,10,05,1.60
2010,11,17,10,06,3.20
2010,11,17,10,07,1.60
2010,11,17,10,08,1.60
2010,11,17,10,14,1.60
2010,11,17,10,15,3.20
2010,11,17,10,16,1.60
2010,11,17,10,21,3.20
2010,11,17,10,22,3.20
2010,11,17,10,23,4.80
2010,11,17,10,24,6.40
2010,11,17,10,25,1.60
2010,11,17,10,26,1.60
2010,11,17,10,27,1.60
2010,11,17,10,28,3.20
2010,11,17,10,29,4.80
2010,11,17,10,30,1.60
2010,11,17,10,31,3.20
2010,11,17,10,32,11.30
2010,11,17,10,33,11.30
2010,11,17,10,34,11.30
2010,11,17,10,35,22.50
2010,11,17,10,36,25.70
2010,11,17,10,37,17.70
2010,11,17,10,38,17.70
2010,11,17,10,39,6.40
2010,11,17,10,40,6.40
2010,11,17,10,42,1.60
2010,11,17,10,43,1.60
2010,11,17,10,44,4.80
2010,11,17,10,45,6.40
2010,11,17,10,46,11.30
2010,11,17,10,47,1.60
2010,11,17,10,48,11.30
2010,11,17,10,49,4.80
2010,11,17,10,50,4.80
2010,11,17,10,51,4.80
2010,11,17,10,52,3.20
2010,11,17,10,53,8.10
2010,11,17,10,54,3.20
2010,11,17,10,55,1.60
2010,11,17,10,56,1.60
2010,11,17,10,58,9.60
2010,11,17,10,59,4.80
2010,11,17,11,00,12.90
2010,11,17,11,01,20.90
2010,11,17,11,02,9.60
2010,11,17,11,03,3.20
2010,11,17,11,04,1.60
2010,11,17,11,05,6.40
2010,11,17,11,06,16.10
2010,11,17,11,07,6.40
2010,11,17,11,08,12.90
2010,11,17,11,09,6.40
2010,11,17,11,10,4.80
2010,11,17,11,11,1.60
2010,11,17,11,12,6.40
2010,11,17,11,13,4.80
2010,11,17,11,14,4.80
2010,11,17,11,15,3.20
2010,11,17,11,16,12.90
2010,11,17,11,17,12.90
2010,11,17,11,18,9.60
2010,11,17,11,19,9.60
2010,11,17,11,20,16.10
2010,11,17,11,21,6.40
2010,11,17,11,22,16.10
2010,11,17,11,23,19.30
2010,11,17,11,24,16.10
2010,11,17,11,25,16.10
2010,11,17,11,26,9.60
2010,11,17,11,27,9.60
2010,11,17,11,28,8.10
2010,11,17,11,29,11.30
2010,11,17,11,30,6.40
2010,11,17,11,31,6.40
2010,11,17,11,32,11.30
2010,11,17,11,33,6.40
2010,11,17,11,34,3.20
2010,11,17,11,35,3.20
2010,11,17,11,36,6.40
2010,11,17,11,37,9.60
2010,11,17,11,38,6.40
2010,11,17,11,39,6.40
2010,11,17,11,40,8.10
2010,11,17,11,41,6.40
2010,11,17,11,42,6.40
2010,11,17,11,43,9.60
2010,11,17,11,44,8.10
2010,11,17,11,45,3.20
2010,11,17,11,46,8.10
2010,11,17,11,47,4.80
2010,11,17,11,48,8.10
2010,11,17,11,49,6.40
2010,11,17,11,50,6.40
2010,11,17,11,51,4.80
2010,11,17,11,52,6.40
2010,11,17,11,53,4.80
2010,11,17,11,54,6.40
2010,11,17,11,55,6.40
2010,11,17,11,56,6.40
2010,11,17,11,57,8.10
2010,11,17,11,58,6.40
2010,11,17,11,59,11.30
2010,11,17,12,00,19.30
2010,11,17,12,01,11.30
2010,11,17,12,02,9.60
2010,11,17,12,03,8.10
2010,11,17,12,04,16.10
2010,11,17,12,05,8.10
2010,11,17,12,06,14.50
2010,11,17,12,07,9.60
2010,11,17,12,08,11.30
2010,11,17,12,09,14.50
2010,11,17,12,10,11.30
2010,11,17,12,11,8.10
2010,11,17,12,12,4.80
2010,11,17,12,13,19.30
2010,11,17,12,14,16.10
2010,11,17,12,15,16.10
2010,11,17,12,16,14.50
2010,11,17,12,17,14.50
2010,11,17,12,18,16.10
2010,11,17,12,19,16.10
2010,11,17,12,20,14.50
2010,11,17,12,21,14.50
2010,11,17,12,22,16.10
2010,11,17,12,23,19.30
2010,11,17,12,24,16.10
2010,11,17,12,25,19.30
2010,11,17,12,26,11.30
2010,11,17,12,27,16.10
2010,11,17,12,28,11.30
2010,11,17,12,29,8.10
2010,11,17,12,30,16.10
2010,11,17,12,31,11.30
2010,11,17,12,32,8.10
2010,11,17,12,33,17.70
2010,11,17,12,34,20.90
2010,11,17,12,35,8.10
2010,11,17,12,36,11.30
2010,11,17,12,37,9.60
2010,11,17,12,38,19.30
2010,11,17,12,39,16.10
2010,11,17,12,40,17.70
2010,11,17,12,41,25.70
2010,11,17,12,42,16.10
2010,11,17,12,43,14.50
2010,11,17,12,44,17.70
2010,11,17,12,45,17.70
2010,11,17,12,46,17.70
2010,11,17,12,47,11.30
2010,11,17,12,48,11.30
2010,11,17,12,49,11.30
2010,11,17,12,50,9.60
2010,11,17,12,51,6.40
2010,11,17,12,52,11.30
2010,11,17,12,53,16.10
2010,11,17,12,54,11.30
2010,11,17,12,55,14.50
2010,11,17,12,56,16.10
2010,11,17,12,57,11.30
2010,11,17,12,58,11.30
2010,11,17,12,59,25.70
2010,11,17,13,00,14.50
2010,11,17,13,01,14.50
2010,11,17,13,02,9.60
2010,11,17,13,03,6.40
2010,11,17,13,04,17.70
2010,11,17,13,05,9.60
2010,11,17,13,06,16.10
2010,11,17,13,07,22.50
2010,11,17,13,08,20.90
2010,11,17,13,09,17.70
2010,11,17,13,10,9.60
2010,11,17,13,11,9.60
2010,11,17,13,12,25.70
2010,11,17,13,13,20.90
2010,11,17,13,14,11.30
2010,11,17,13,15,27.40
2010,11,17,13,16,8.10
2010,11,17,13,17,6.40
2010,11,17,13,18,11.30
2010,11,17,13,19,8.10
2010,11,17,13,20,6.40
2010,11,17,13,21,8.10
2010,11,17,13,22,16.10
2010,11,17,13,23,16.10
2010,11,17,13,24,6.40
2010,11,17,13,25,6.40
2010,11,17,13,26,11.30
2010,11,17,13,27,8.10
2010,11,17,13,28,17.70
2010,11,17,13,29,11.30
2010,11,17,13,30,16.10
2010,11,17,13,31,19.30
2010,11,17,13,32,14.50
2010,11,17,13,33,9.60
2010,11,17,13,34,11.30
2010,11,17,13,35,17.70
2010,11,17,13,36,14.50
2010,11,17,13,37,11.30
2010,11,17,13,38,20.90
2010,11,17,13,39,11.30
2010,11,17,13,40,8.10
2010,11,17,13,41,16.10
2010,11,17,13,42,16.10
2010,11,17,13,43,9.60
2010,11,17,13,44,11.30
2010,11,17,13,45,11.30
2010,11,17,13,46,4.80
2010,11,17,13,47,8.10
2010,11,17,13,48,8.10
2010,11,17,13,49,8.10
2010,11,17,13,50,9.60
2010,11,17,13,51,9.60
2010,11,17,13,52,8.10
2010,11,17,13,53,9.60
2010,11,17,13,54,19.30
2010,11,17,13,55,11.30
2010,11,17,13,56,29.00
2010,11,17,13,57,20.90
2010,11,17,13,58,25.70
2010,11,17,13,59,27.40
2010,11,17,14,00,19.30
2010,11,17,14,01,19.30
2010,11,17,14,02,19.30
2010,11,17,14,03,20.90
2010,11,17,14,04,19.30
2010,11,17,14,05,16.10
2010,11,17,14,06,11.30
2010,11,17,14,07,8.10
2010,11,17,14,08,19.30
2010,11,17,14,09,11.30
2010,11,17,14,10,11.30
2010,11,17,14,11,19.30
2010,11,17,14,12,16.10
2010,11,17,14,13,16.10
2010,11,17,14,14,16.10
2010,11,17,14,15,16.10
2010,11,17,14,16,14.50
2010,11,17,14,17,11.30
2010,11,17,14,18,9.60
2010,11,17,14,19,8.10
2010,11,17,14,20,16.10
2010,11,17,14,21,11.30
2010,11,17,14,22,9.60
2010,11,17,14,23,9.60
2010,11,17,14,24,22.50
2010,11,17,14,25,11.30
2010,11,17,14,26,8.10
2010,11,17,14,27,16.10
2010,11,17,14,28,9.60
2010,11,17,14,29,8.10
2010,11,17,14,30,11.30
2010,11,17,14,31,3.20
2010,11,17,14,32,4.80
2010,11,17,14,33,6.40
2010,11,17,14,34,3.20
2010,11,17,14,35,4.80
2010,11,17,14,36,9.60
2010,11,17,14,37,6.40
2010,11,17,14,38,6.40
2010,11,17,14,39,11.30
2010,11,17,14,40,8.10
2010,11,17,14,41,6.40
2010,11,17,14,42,6.40
2010,11,17,14,43,4.80
2010,11,17,14,44,11.30
2010,11,17,14,45,4.80
2010,11,17,14,46,4.80
2010,11,17,14,47,3.20
2010,11,17,14,48,6.40
2010,11,17,14,49,6.40
2010,11,17,14,50,6.40
2010,11,17,14,51,3.20
2010,11,17,14,52,3.20
2010,11,17,14,53,4.80
2010,11,17,14,54,6.40
2010,11,17,14,55,6.40
2010,11,17,14,56,14.50
2010,11,17,14,57,12.90
2010,11,17,14,58,8.10
2010,11,17,14,59,4.80
2010,11,17,15,00,3.20
2010,11,17,15,01,6.40
2010,11,17,15,02,4.80
2010,11,17,15,03,6.40
2010,11,17,15,04,3.20
2010,11,17,15,05,8.10
2010,11,17,15,06,8.10
2010,11,17,15,07,6.40
2010,11,17,15,08,3.20
2010,11,17,15,09,4.80
2010,11,17,15,10,1.60
2010,11,17,15,11,4.80
2010,11,17,15,12,6.40
2010,11,17,15,13,3.20
2010,11,17,15,14,4.80
2010,11,17,15,15,4.80
2010,11,17,15,16,8.10
2010,11,17,15,17,8.10
2010,11,17,15,18,6.40
2010,11,17,15,19,3.20
2010,11,17,15,20,3.20
2010,11,17,15,21,4.80
2010,11,17,15,22,4.80
2010,11,17,15,23,1.60
2010,11,17,15,24,3.20
2010,11,17,15,25,11.30
2010,11,17,15,26,8.10
2010,11,17,15,27,8.10
2010,11,17,15,28,8.10
2010,11,17,15,29,6.40
2010,11,17,15,30,3.20
2010,11,17,15,31,6.40
2010,11,17,15,32,4.80
2010,11,17,15,33,4.80
2010,11,17,15,34,6.40
2010,11,17,15,35,4.80
2010,11,17,15,36,6.40
2010,11,17,15,37,4.80
2010,11,17,15,38,6.40
2010,11,17,15,39,3.20
2010,11,17,15,40,4.80
2010,11,17,15,41,3.20
2010,11,17,15,42,4.80
2010,11,17,15,43,3.20
2010,11,17,15,44,6.40
2010,11,17,15,45,3.20
2010,11,17,15,46,3.20
2010,11,17,15,47,1.60
2010,11,17,15,48,4.80
2010,11,17,15,49,6.40
2010,11,17,15,50,9.60
2010,11,17,15,51,9.60
2010,11,17,15,52,19.30
2010,11,17,15,53,16.10
2010,11,17,15,54,19.30
2010,11,17,15,55,17.70
2010,11,17,15,56,20.90
2010,11,17,15,57,27.40
2010,11,17,15,58,27.40
2010,11,17,15,59,30.60
2010,11,17,16,00,24.20
2010,11,17,16,01,17.70
2010,11,17,16,02,14.50
2010,11,17,16,03,8.10
2010,11,17,16,04,4.80
2010,11,17,16,05,6.40
2010,11,17,16,06,11.30
2010,11,17,16,07,4.80
2010,11,17,16,08,4.80
2010,11,17,16,09,3.20
2010,11,17,16,10,6.40
2010,11,17,16,11,6.40
2010,11,17,16,12,3.20
2010,11,17,16,13,3.20
2010,11,17,16,15,1.60
2010,11,17,16,16,1.60
2010,11,17,16,17,1.60
2010,11,17,16,18,3.20
2010,11,17,16,19,1.60
2010,11,17,16,20,1.60
2010,11,17,16,21,1.60
2010,11,17,16,24,3.20
2010,11,17,16,30,3.20
2010,11,17,16,31,1.60
2010,11,17,16,32,1.60
2010,11,17,16,33,1.60
2010,11,17,16,34,1.60
2010,11,17,16,35,3.20
2010,11,17,16,36,3.20
2010,11,17,16,37,1.60
2010,11,17,16,38,1.60
2010,11,17,16,39,1.60
2010,11,17,16,40,1.60
2010,11,17,16,41,1.60
2010,11,17,16,42,1.60
2010,11,17,16,43,1.60
2010,11,17,16,44,1.60
2010,11,17,16,45,3.20
2010,11,17,16,46,3.20
2010,11,17,16,47,6.40
2010,11,17,16,48,6.40
2010,11,17,16,49,4.80
2010,11,17,16,50,6.40
2010,11,17,16,51,4.80
2010,11,17,16,52,8.10
2010,11,17,16,53,4.80
2010,11,17,16,54,6.40
2010,11,17,16,55,4.80
2010,11,17,16,56,1.60
2010,11,17,16,57,3.20
2010,11,17,16,58,4.80
2010,11,17,16,59,4.80
2010,11,17,17,00,4.80
2010,11,17,17,01,3.20
2010,11,17,17,02,1.60
2010,11,17,17,03,3.20
2010,11,17,17,05,1.60
2010,11,17,17,14,1.60
2010,11,17,17,15,1.60
2010,11,17,17,26,1.60
2010,11,17,17,27,1.60
2010,11,17,17,28,1.60
2010,11,17,17,29,3.20
2010,11,17,17,30,4.80
2010,11,17,17,31,3.20
2010,11,17,17,32,6.40
2010,11,17,17,33,6.40
2010,11,17,17,34,6.40
2010,11,17,17,35,6.40
2010,11,17,17,38,1.60
2010,11,17,17,39,1.60
2010,11,17,17,41,1.60
2010,11,17,17,46,1.60
2010,11,17,17,47,1.60
2010,11,17,17,54,1.60
2010,11,17,17,55,1.60
2010,11,17,17,56,1.60
2010,11,17,17,57,1.60
2010,11,17,17,58,6.40
2010,11,17,17,59,6.40
2010,11,17,18,00,4.80
2010,11,17,18,01,3.20
2010,11,17,18,02,3.20
2010,11,17,18,04,1.60
2010,11,17,18,23,1.60
2010,11,17,18,25,1.60
2010,11,17,18,26,1.60
2010,11,17,18,27,1.60
2010,11,17,18,28,1.60
2010,11,17,18,29,1.60
2010,11,17,18,30,1.60
2010,11,17,18,31,1.60
2010,11,17,18,32,1.60
2010,11,17,18,33,6.40
2010,11,17,18,34,3.20
2010,11,17,18,36,3.20
2010,11,17,18,37,1.60
2010,11,17,18,38,1.60
2010,11,17,18,39,1.60
2010,11,17,18,40,1.60
2010,11,17,18,41,1.60
2010,11,17,18,44,1.60
2010,11,17,18,45,1.60
2010,11,17,18,47,1.60
2010,11,17,18,50,1.60
2010,11,17,18,51,1.60
2010,11,17,18,52,1.60
2010,11,17,18,53,1.60
2010,11,17,18,56,1.60
2010,11,17,19,00,1.60
2010,11,17,19,01,1.60
2010,11,17,19,02,1.60
2010,11,17,19,20,3.20
2010,11,17,19,22,1.60
2010,11,17,19,33,1.60
2010,11,17,19,35,1.60
2010,11,17,19,36,1.60
2010,11,17,19,37,3.20
2010,11,17,19,38,1.60
2010,11,17,19,40,3.20
2010,11,17,19,41,1.60
2010,11,17,19,42,4.80
2010,11,17,19,43,11.30
2010,11,17,19,44,8.10
2010,11,17,19,45,9.60
2010,11,17,19,46,8.10
2010,11,17,19,47,11.30
2010,11,17,19,48,4.80
2010,11,17,19,49,3.20
2010,11,17,19,50,9.60
2010,11,17,19,51,3.20
2010,11,17,19,52,11.30
2010,11,17,19,53,8.10
2010,11,17,19,54,3.20
2010,11,17,19,55,6.40
2010,11,17,19,56,4.80
2010,11,17,19,57,4.80
2010,11,17,19,58,4.80
2010,11,17,19,59,4.80
2010,11,17,20,00,3.20
2010,11,17,20,01,6.40
2010,11,17,20,02,6.40
2010,11,17,20,03,6.40
2010,11,17,20,04,3.20
2010,11,17,20,05,3.20
2010,11,17,20,06,4.80
2010,11,17,20,07,6.40
2010,11,17,20,08,1.60
2010,11,17,20,09,4.80
2010,11,17,20,10,3.20
2010,11,17,20,11,3.20
2010,11,17,20,12,1.60
2010,11,17,20,14,4.80
2010,11,17,20,15,1.60
2010,11,17,20,16,1.60
2010,11,17,20,17,1.60
2010,11,17,20,18,1.60
2010,11,17,20,20,1.60
2010,11,17,20,22,1.60
2010,11,17,20,31,3.20
2010,11,17,20,32,3.20
2010,11,17,20,33,3.20
2010,11,17,20,35,1.60
2010,11,17,20,38,3.20
2010,11,17,20,40,1.60
2010,11,17,20,41,3.20
2010,11,17,20,43,1.60
2010,11,17,20,44,1.60
2010,11,17,20,46,1.60
2010,11,17,20,47,1.60
2010,11,17,20,48,1.60
2010,11,17,20,49,1.60
2010,11,17,20,50,1.60
2010,11,17,20,51,6.40
2010,11,17,20,52,3.20
2010,11,17,20,53,1.60
2010,11,17,20,54,3.20
2010,11,17,20,55,3.20
2010,11,17,20,56,1.60
2010,11,17,20,57,3.20
2010,11,17,20,58,1.60
2010,11,17,20,59,3.20
2010,11,17,21,01,1.60
2010,11,17,21,02,4.80
2010,11,17,21,03,1.60
2010,11,17,21,04,3.20
2010,11,17,21,05,4.80
2010,11,17,21,06,3.20
2010,11,17,21,07,4.80
2010,11,17,21,08,1.60
2010,11,17,21,09,1.60
2010,11,17,21,10,3.20
2010,11,17,21,11,1.60
2010,11,17,21,12,1.60
2010,11,17,21,13,4.80
2010,11,17,21,14,3.20
2010,11,17,21,15,3.20
2010,11,17,21,16,3.20
2010,11,17,21,17,3.20
2010,11,17,21,18,4.80
2010,11,17,21,19,1.60
2010,11,17,21,20,3.20
2010,11,17,21,21,3.20
2010,11,17,21,22,1.60
2010,11,17,21,23,1.60
2010,11,17,21,24,3.20
2010,11,17,21,25,3.20
2010,11,17,21,26,3.20
2010,11,17,21,28,1.60
2010,11,17,21,29,3.20
2010,11,17,21,30,1.60
2010,11,17,21,32,1.60
2010,11,17,21,33,1.60
2010,11,17,21,34,1.60
2010,11,17,21,36,1.60
2010,11,17,21,37,3.20
2010,11,17,21,38,3.20
2010,11,17,21,39,3.20
2010,11,17,21,40,1.60
2010,11,17,21,41,1.60
2010,11,17,21,43,1.60
2010,11,17,21,44,3.20
2010,11,17,21,45,3.20
2010,11,17,21,46,1.60
2010,11,17,21,47,1.60
2010,11,17,21,48,1.60
2010,11,17,21,50,1.60
2010,11,17,21,51,1.60
2010,11,17,21,52,1.60
2010,11,17,21,53,1.60
2010,11,17,21,54,1.60
2010,11,17,21,55,1.60
2010,11,17,21,56,3.20
2010,11,17,21,57,3.20
2010,11,17,21,58,3.20
2010,11,17,21,59,1.60
2010,11,17,22,00,4.80
2010,11,17,22,01,4.80
2010,11,17,22,02,6.40
2010,11,17,22,03,4.80
2010,11,17,22,04,4.80
2010,11,17,22,05,6.40
2010,11,17,22,06,6.40
2010,11,17,22,07,16.10
2010,11,17,22,08,8.10
2010,11,17,22,09,6.40
2010,11,17,22,10,6.40
2010,11,17,22,11,16.10
2010,11,17,22,12,6.40
2010,11,17,22,13,8.10
2010,11,17,22,14,4.80
2010,11,17,22,15,4.80
2010,11,17,22,16,4.80
2010,11,17,22,17,9.60
2010,11,17,22,18,8.10
2010,11,17,22,19,3.20
2010,11,17,22,20,4.80
2010,11,17,22,21,4.80
2010,11,17,22,22,4.80
2010,11,17,22,23,1.60
2010,11,17,22,24,1.60
2010,11,17,22,25,3.20
2010,11,17,22,26,1.60
2010,11,17,22,27,1.60
2010,11,17,22,28,1.60
2010,11,17,22,29,1.60
2010,11,17,22,30,1.60
2010,11,17,22,31,1.60
2010,11,17,22,32,6.40
2010,11,17,22,33,4.80
2010,11,17,22,34,4.80
2010,11,17,22,35,4.80
2010,11,17,22,36,3.20
2010,11,17,22,37,4.80
2010,11,17,22,38,4.80
2010,11,17,22,39,4.80
2010,11,17,22,40,4.80
2010,11,17,22,41,4.80
2010,11,17,22,42,4.80
2010,11,17,22,43,3.20
2010,11,17,22,44,4.80
2010,11,17,22,46,1.60
2010,11,17,22,48,1.60
2010,11,17,22,49,1.60
2010,11,17,22,50,4.80
2010,11,17,22,51,1.60
2010,11,17,22,52,1.60
2010,11,17,22,53,3.20
2010,11,17,22,54,4.80
2010,11,17,22,55,1.60
2010,11,17,22,56,3.20
2010,11,17,22,57,3.20
2010,11,17,22,58,1.60
2010,11,17,22,59,1.60
2010,11,17,23,00,1.60
2010,11,17,23,08,1.60
2010,11,17,23,09,1.60
2010,11,17,23,10,1.60
2010,11,17,23,11,1.60
2010,11,17,23,21,1.60
2010,11,17,23,24,1.60
2010,11,17,23,25,3.20
2010,11,17,23,26,4.80
2010,11,17,23,27,4.80
2010,11,17,23,28,6.40
2010,11,17,23,29,4.80
2010,11,17,23,30,1.60
2010,11,17,23,31,4.80
2010,11,17,23,32,4.80
2010,11,17,23,33,1.60
2010,11,17,23,34,1.60
2010,11,17,23,35,3.20
2010,11,17,23,36,1.60
2010,11,17,23,37,6.40
2010,11,17,23,38,3.20
2010,11,17,23,39,3.20
2010,11,17,23,40,1.60
2010,11,17,23,43,3.20
2010,11,17,23,44,3.20
2010,11,17,23,45,1.60
2010,11,17,23,46,1.60
2010,11,17,23,48,3.20
2010,11,17,23,49,3.20
2010,11,17,23,50,1.60
2010,11,17,23,51,1.60
2010,11,17,23,59,1.60
